Hourly Data Report for May 20, 2004

SHERBROOKE A
QUEBEC

45°26'00.000" N
71°41'00.000" W
241.40 m
7028124
71610
YSC

Download Data

Hourly Data (May 2004)
Hourly Data Report for May 20, 2004
TIME
LST
Temp Definition
°C
Dew Point Definition
°C
Rel Hum Definition
%
Precip. Amount Definition
mm

Wind Dir Definition
10's deg

Wind Spd Definition
km/h
Visibility Definition
km
Stn Press Definition
kPa
Hmdx Definition


Wind Chill Definition


Weather Definition


00:00 6.0 4.8 92   9 6 15.0 99.41      
01:00 6.1 4.3 88   8 6 15.0 99.41      
02:00 4.4 3.0 91   10 4 15.0 99.43      
03:00 4.1 3.0 93   10 4 12.9 99.44      
04:00 3.7 2.4 91   9 4 15.0 99.48      
05:00 4.8 3.6 92   12 4 15.0 99.51      
06:00 8.4 5.4 81     0 15.0 99.54      
07:00 11.4 6.5 72     0 24.1 99.59     Mainly Clear
08:00 15.6 7.8 60   4 6 24.1 99.48     Mainly Clear
09:00 20.0 8.3 47   21 4 24.1 99.38     Mainly Clear
10:00 21.4 5.8 36   18 17 24.1 99.31     Mainly Clear
11:00 21.9 5.4 34   21 24 24.1 99.20     Mostly Cloudy
12:00 23.0 6.8 35   24 19 24.1 99.12     Mostly Cloudy
13:00 23.6 5.5 31   20 17 24.1 98.97     Mostly Cloudy
14:00 22.2 4.2 31   21 30 24.1 98.87     Mostly Cloudy
15:00 21.7 5.4 35   20 15 24.1 98.76     Cloudy
16:00 21.4 6.4 38   20 19 24.1 98.67     Cloudy
17:00 20.6 6.4 40   17 17 15.0 98.55      
18:00 19.1 8.0 49   18 9 15.0 98.50     Rain
19:00 17.4 8.4 55   15 6 15.0 98.51     Rain
20:00 15.2 10.9 75   16 9 15.0 98.48     Rain
21:00 14.4 11.7 84   13 11 15.0 98.44      
22:00 13.4 11.8 90   1 6 2.9 98.57     Heavy Rain
23:00 13.2 11.7 91   16 13 15.0 98.50     Rain

Notes on Data Quality.

Legend

  • E = Estimated
  • M = Missing
  • NA = Not Available*
  • [empty] = Indicates an unobserved value
Date modified: